WA7SB-7 Weather Reports


Display with metric or nautical units.
time (UTC)temp
F
wind
direction
speed
MPH
gust
MPH
rain 1hr
in
rain 24hr
in
rain mn
in
humidity
%
barometer
mb
20260502221032 59 150 0.0 0.0 0.00 0.00 0.00 82 1014.7
20260502220931 59 357 0.0 0.0 0.00 0.00 0.00 82 1014.7
20260502220528 58 307 0.0 0.0 0.00 0.00 0.00 80 1014.7
20260502220428 59 262 0.0 0.0 0.00 0.00 0.00 80 1014.7
20260502220014 58 271 0.0 0.0 0.00 0.00 0.00 81 1014.7
20260502215933 58 91 0.0 0.0 0.00 0.00 0.00 81 1014.7
20260502215530 58 348 0.0 0.0 0.00 0.00 0.00 80 1014.7
20260502215416 58 265 0.0 0.0 0.00 0.00 0.00 81 1014.8
20260502215032 58 88 0.0 0.0 0.00 0.00 0.00 80 1014.8
20260502214915 58 300 0.0 0.0 0.00 0.00 0.00 81 1014.8
20260502214533 58 126 0.0 0.0 0.00 0.00 0.00 80 1014.7
20260502214432 58 127 0.0 0.0 0.00 0.00 0.00 80 1014.8
20260502214029 59 44 0.0 0.0 0.00 0.00 0.00 81 1014.8
20260502213929 59 238 0.0 0.0 0.00 0.00 0.00 81 1014.7
20260502213529 58 68 0.0 0.0 0.00 0.00 0.00 80 1014.6
20260502213430 58 71 0.0 0.0 0.00 0.00 0.00 80 1014.6
20260502213028 59 58 0.0 0.0 0.00 0.00 0.00 79 1014.6
20260502212930 59 281 0.0 0.0 0.00 0.00 0.00 80 1014.7
20260502212528 58 40 0.0 0.0 0.00 0.00 0.00 80 1014.8
20260502212430 58 49 0.0 0.0 0.00 0.00 0.00 80 1014.8
20260502212029 58 294 0.0 0.0 0.00 0.00 0.00 81 1014.8
20260502211929 58 287 0.0 0.0 0.00 0.00 0.00 81 1014.9
20260502211525 58 235 0.0 0.0 0.00 0.00 0.00 80 1014.8
20260502211426 58 290 0.0 0.0 0.00 0.00 0.00 80 1014.8
20260502211026 59 265 0.0 0.0 0.00 0.00 0.00 80 1014.8
20260502210927 59 85 0.0 0.0 0.00 0.00 0.00 79 1014.8
20260502210524 59 314 0.0 0.0 0.00 0.00 0.00 79 1014.9
20260502210422 59 319 0.0 0.0 0.00 0.00 0.00 81 1014.9
20260502210025 59 133 0.0 0.0 0.00 0.00 0.00 81 1014.9
20260502205927 59 39 0.0 0.0 0.00 0.00 0.00 81 1015.0
20260502205519 59 65 0.0 0.0 0.00 0.00 0.00 79 1015.0
20260502205423 59 98 0.0 0.0 0.00 0.00 0.00 80 1015.0
20260502205016 59 335 0.0 0.0 0.00 0.00 0.00 80 1015.1
20260502204917 59 98 0.0 0.0 0.00 0.00 0.00 79 1015.1
20260502204516 59 52 0.0 0.0 0.00 0.00 0.00 79 1015.1
20260502204415 59 233 0.0 0.0 0.00 0.00 0.00 79 1015.1
20260502204014 59 319 0.0 0.0 0.00 0.00 0.00 78 1015.1
20260502203914 59 297 0.0 0.0 0.00 0.00 0.00 78 1015.1
20260502203515 59 32 0.0 0.0 0.00 0.00 0.00 78 1015.1
20260502203434 59 181 0.0 0.0 0.00 0.00 0.00 78 1015.1
20260502203032 59 296 0.0 0.0 0.00 0.00 0.00 79 1015.1
20260502202914 59 256 0.0 0.0 0.00 0.00 0.00 80 1015.1
20260502202513 59 285 0.0 0.0 0.00 0.00 0.00 78 1015.2
20260502202414 59 333 0.0 0.0 0.00 0.00 0.00 79 1015.3
20260502202015 59 226 0.0 0.0 0.00 0.00 0.00 80 1015.5
20260502201916 59 99 0.0 0.0 0.00 0.00 0.00 79 1015.5
20260502201515 59 219 0.0 0.0 0.00 0.00 0.00 77 1015.5
20260502201417 60 270 0.0 0.0 0.00 0.00 0.00 78 1015.6
20260502201014 59 82 0.0 0.0 0.00 0.00 0.00 81 1015.5
20260502200914 59 276 0.0 0.0 0.00 0.00 0.00 81 1015.5
20260502200516 58 70 0.0 0.0 0.00 0.00 0.00 80 1015.6
20260502200433 58 181 0.0 0.0 0.00 0.00 0.00 80 1015.6
20260502200119 57 280 0.0 0.0 0.00 0.00 0.00 82 1015.6
20260502195933 57 288 0.0 0.0 0.00 0.00 0.00 82 1015.7
20260502195529 56 92 0.0 0.0 0.00 0.00 0.00 82 1015.6
20260502195426 56 207 0.0 0.0 0.00 0.00 0.00 82 1015.8
20260502195025 56 226 0.0 0.0 0.00 0.00 0.00 81 1015.8
20260502194925 56 226 0.0 0.0 0.00 0.00 0.00 81 1015.8
20260502194522 56 322 0.0 0.0 0.00 0.00 0.00 80 1015.9
20260502194422 56 62 0.0 0.0 0.00 0.00 0.00 80 1016.0
20260502194018 57 261 0.0 0.0 0.00 0.00 0.00 79 1016.0
20260502193918 57 287 0.0 0.0 0.00 0.00 0.00 79 1016.0
20260502193515 57 43 0.0 0.0 0.00 0.00 0.00 79 1016.0
20260502193416 57 22 0.0 0.0 0.00 0.00 0.00 78 1016.0
20260502193013 59 243 0.0 0.0 0.00 0.00 0.00 77 1016.0
20260502192912 59 104 0.0 0.0 0.00 0.00 0.00 78 1016.0
20260502192528 60 78 0.0 0.0 0.00 0.00 0.00 78 1016.0
20260502192433 59 285 0.0 0.0 0.00 0.00 0.00 78 1016.0
20260502192027 59 301 0.0 0.0 0.00 0.00 0.00 79 1016.0
20260502191933 59 79 0.0 0.0 0.00 0.00 0.00 77 1016.0
20260502191528 59 290 0.0 0.0 0.00 0.00 0.00 80 1016.2
20260502191429 59 101 0.0 0.0 0.00 0.00 0.00 79 1016.2
20260502191027 58 286 0.0 0.0 0.00 0.00 0.00 78 1016.1
20260502190927 58 43 0.0 0.0 0.00 0.00 0.00 78 1016.2
20260502190525 58 85 0.0 0.0 0.00 0.00 0.00 78 1016.3
20260502190424 58 108 0.0 0.0 0.00 0.00 0.00 78 1016.3
20260502190027 58 333 0.0 0.0 0.00 0.00 0.00 78 1016.3
20260502185928 58 131 0.0 0.0 0.00 0.00 0.00 78 1016.2
20260502185523 58 309 0.0 0.0 0.00 0.00 0.00 78 1016.4
20260502185423 58 34 0.0 0.0 0.00 0.00 0.00 79 1016.3
20260502185019 58 267 0.0 0.0 0.00 0.00 0.00 78 1016.3
20260502184918 58 294 0.0 0.0 0.00 0.00 0.00 79 1016.4
20260502184517 58 113 0.0 0.0 0.00 0.00 0.00 80 1016.2
20260502184420 57 232 0.0 0.0 0.00 0.00 0.00 80 1016.2
20260502184019 57 229 0.0 0.0 0.00 0.00 0.00 80 1016.2
20260502183921 57 348 0.0 0.0 0.00 0.00 0.00 80 1016.3
20260502183522 57 228 0.0 0.0 0.00 0.00 0.00 80 1016.4
20260502183422 57 243 0.0 0.0 0.00 0.00 0.00 80 1016.5
20260502183016 56 309 0.0 0.0 0.00 0.00 0.00 81 1016.4
20260502182922 56 309 0.0 0.0 0.00 0.00 0.00 81 1016.4
20260502182519 56 62 0.0 0.0 0.00 0.00 0.00 82 1016.4
20260502182421 56 121 0.0 0.0 0.00 0.00 0.00 82 1016.4
20260502182015 56 75 0.0 0.0 0.00 0.00 0.00 82 1016.4
20260502181916 56 312 0.0 0.0 0.00 0.00 0.00 82 1016.3
20260502181516 56 274 0.0 0.0 0.00 0.00 0.00 82 1016.4
20260502181417 56 27 0.0 0.0 0.00 0.00 0.00 82 1016.4
20260502181017 55 58 0.0 0.0 0.00 0.00 0.00 82 1016.4
20260502180918 55 327 0.0 0.0 0.00 0.00 0.00 83 1016.5
20260502180520 55 224 0.0 0.0 0.00 0.00 0.00 83 1016.5
20260502180421 55 224 0.0 0.0 0.00 0.00 0.00 83 1016.5
20260502170519 54 249 0.0 0.0 0.00 0.00 0.00 86 1016.5
20260502170419 54 156 0.0 0.0 0.00 0.00 0.00 86 1016.6
20260502163524 53 244 0.0 0.0 0.00 0.00 0.00 86 1016.6
20260502163423 53 243 0.0 0.0 0.00 0.00 0.00 86 1016.6
20260502163020 53 267 0.0 0.0 0.00 0.00 0.00 86 1016.6
20260502162920 53 258 0.0 0.0 0.00 0.00 0.00 86 1016.6
20260502162518 53 344 0.0 0.0 0.00 0.00 0.00 86 1016.6
20260502162419 53 347 0.0 0.0 0.00 0.00 0.00 86 1016.6
20260502162048 53 356 0.0 0.0 0.00 0.00 0.00 86 1016.6
20260502162008 53 237 0.0 0.0 0.00 0.00 0.00 86 1016.6
20260502161522 53 292 0.0 0.0 0.00 0.00 0.00 86 1016.6
20260502161423 53 292 0.0 0.0 0.00 0.00 0.00 86 1016.6
20260502161022 53 203 0.0 0.0 0.00 0.00 0.00 86 1016.6
20260502160923 53 120 0.0 0.0 0.00 0.00 0.00 86 1016.6
20260502130533 51 170 0.0 0.0 0.00 0.00 0.00 86 1017.0
20260502130432 51 95 0.0 0.0 0.00 0.00 0.00 86 1017.0
20260502123520 51 330 0.0 0.0 0.00 0.00 0.00 86 1016.8
20260502123422 51 330 0.0 0.0 0.00 0.00 0.00 86 1016.9
20260502123018 51 110 0.0 0.0 0.00 0.00 0.00 86 1016.9
20260502122923 51 263 0.0 0.0 0.00 0.00 0.00 86 1017.0
20260502122515 51 193 0.0 0.0 0.00 0.00 0.00 86 1017.2
20260502122436 51 193 0.0 0.0 0.00 0.00 0.00 86 1017.2
20260502122031 51 245 0.0 0.0 0.00 0.00 0.00 86 1017.3
20260502121931 51 254 0.0 0.0 0.00 0.00 0.00 86 1017.3
20260502121530 51 283 0.0 0.0 0.00 0.00 0.00 86 1017.3
20260502121431 51 283 0.0 0.0 0.00 0.00 0.00 86 1017.3
20260502121029 51 255 0.0 0.0 0.00 0.00 0.00 86 1017.3
20260502120930 51 255 0.0 0.0 0.00 0.00 0.00 86 1017.3
20260502120529 51 302 0.0 0.0 0.00 0.00 0.00 86 1017.3
20260502120427 51 302 0.0 0.0 0.00 0.00 0.00 86 1017.4
20260502115916 51 278 0.0 0.0 0.00 0.00 0.00 87 1017.4
20260502115514 51 278 0.0 0.0 0.00 0.00 0.00 87 1017.3
20260502115434 51 278 0.0 0.0 0.00 0.00 0.00 87 1017.2
20260502115031 51 277 0.0 0.0 0.00 0.00 0.00 87 1017.3
20260502114933 51 277 0.0 0.0 0.00 0.00 0.00 87 1017.2
20260502114533 51 167 0.0 0.0 0.00 0.00 0.00 87 1017.3
20260502114414 51 167 0.0 0.0 0.00 0.00 0.00 87 1017.3
20260502114015 51 190 0.0 0.0 0.00 0.00 0.00 87 1017.3
20260502113936 51 190 0.0 0.0 0.00 0.00 0.00 87 1017.3
20260502113533 51 190 0.0 0.0 0.00 0.00 0.00 87 1017.3
20260502113437 51 190 0.0 0.0 0.00 0.00 0.00 87 1017.3
20260502113032 51 77 0.0 0.0 0.00 0.00 0.00 87 1017.3
20260502112934 51 77 0.0 0.0 0.00 0.00 0.00 87 1017.4
20260502112532 51 245 0.0 0.0 0.00 0.00 0.00 86 1017.3
20260502112432 51 245 0.0 0.0 0.00 0.00 0.00 86 1017.4
20260502112032 51 210 0.0 0.0 0.00 0.00 0.00 86 1017.4
20260502111933 51 210 0.0 0.0 0.00 0.00 0.00 86 1017.3
20260502111532 51 272 0.0 0.0 0.00 0.00 0.00 86 1017.4
20260502111434 51 273 0.0 0.0 0.00 0.00 0.00 86 1017.4
20260502111033 51 268 0.0 0.0 0.00 0.00 0.00 86 1017.4
20260502110934 51 268 0.0 0.0 0.00 0.00 0.00 86 1017.4
20260502110534 51 164 0.0 0.0 0.00 0.00 0.00 86 1017.4
20260502110414 51 34 0.0 0.0 0.00 0.00 0.00 86 1017.4
20260502110023 51 295 0.0 0.0 0.00 0.00 0.00 86 1017.3
20260502105925 51 323 0.0 0.0 0.00 0.00 0.00 86 1017.3
20260502105524 51 323 0.0 0.0 0.00 0.00 0.00 86 1017.3
20260502105426 51 227 0.0 0.0 0.00 0.00 0.00 86 1017.3
20260502105022 51 143 0.0 0.0 0.00 0.00 0.00 87 1017.3
20260502104921 51 283 0.0 0.0 0.00 0.00 0.00 87 1017.4
20260502104517 51 283 0.0 0.0 0.00 0.00 0.00 87 1017.4
20260502104437 51 283 0.0 0.0 0.00 0.00 0.00 87 1017.4
20260502104029 51 243 0.0 0.0 0.00 0.00 0.00 87 1017.5
20260502103932 51 232 0.0 0.0 0.00 0.00 0.00 87 1017.4
20260502103529 51 116 0.0 0.0 0.00 0.00 0.00 87 1017.5
20260502103432 51 137 0.0 0.0 0.00 0.00 0.00 87 1017.5
20260502103026 51 236 0.0 0.0 0.00 0.00 0.00 87 1017.5
20260502102927 51 236 0.0 0.0 0.00 0.00 0.00 87 1017.6
20260502102528 51 159 0.0 0.0 0.00 0.00 0.00 87 1017.5
20260502102428 51 8 0.0 0.0 0.00 0.00 0.00 87 1017.5
20260502102025 51 272 0.0 0.0 0.00 0.00 0.00 87 1017.6
20260502101924 51 227 0.0 0.0 0.00 0.00 0.00 87 1017.6
20260502101525 51 306 0.0 0.0 0.00 0.00 0.00 86 1017.6
20260502101426 51 306 0.0 0.0 0.00 0.00 0.00 86 1017.6
20260502101026 51 265 0.0 0.0 0.00 0.00 0.00 86 1017.6
20260502100928 51 265 0.0 0.0 0.00 0.00 0.00 86 1017.6
20260502100529 51 84 0.0 0.0 0.00 0.00 0.00 86 1017.8
20260502100430 51 84 0.0 0.0 0.00 0.00 0.00 86 1017.7
20260502091515 51 288 0.0 0.0 0.00 0.00 0.00 86 1018.0
20260502091417 51 290 0.0 0.0 0.00 0.00 0.00 86 1018.0
20260502091018 51 179 0.0 0.0 0.00 0.00 0.00 86 1018.0
20260502090919 51 147 0.0 0.0 0.00 0.00 0.00 86 1018.1
20260502090519 51 214 0.0 0.0 0.00 0.00 0.00 86 1018.1
20260502090417 51 213 0.0 0.0 0.00 0.00 0.00 86 1018.1
20260502071527 51 229 0.0 0.0 0.00 0.00 0.00 87 1018.8
20260502071427 51 286 0.0 0.0 0.00 0.00 0.00 87 1018.8
20260502071021 51 276 0.0 0.0 0.00 0.00 0.00 86 1018.8
20260502070922 51 276 0.0 0.0 0.00 0.00 0.00 86 1018.7
20260502070521 51 245 0.0 0.0 0.00 0.00 0.00 86 1018.7
20260502070421 51 286 0.0 0.0 0.00 0.00 0.00 86 1018.8
20260502070026 51 228 0.0 0.0 0.00 0.00 0.00 86 1018.7
20260502065920 51 191 0.0 0.0 0.00 0.00 0.00 86 1018.8
20260502065520 51 240 0.0 0.0 0.00 0.00 0.00 86 1018.8
20260502065421 51 248 0.0 0.0 0.00 0.00 0.00 86 1018.8
20260502065022 51 212 0.0 0.0 0.00 0.00 0.00 86 1018.7
20260502064923 51 212 0.0 0.0 0.00 0.00 0.00 86 1018.8
20260502064519 51 233 0.0 0.0 0.00 0.00 0.00 86 1018.7
20260502064423 51 233 0.0 0.0 0.00 0.00 0.00 86 1018.7
20260502064020 51 244 0.0 0.0 0.00 0.00 0.00 85 1018.8
20260502063925 51 127 0.0 0.0 0.00 0.00 0.00 85 1018.8
20260502063522 51 147 0.0 0.0 0.00 0.00 0.00 85 1018.8
20260502063423 51 147 0.0 0.0 0.00 0.00 0.00 85 1018.9
20260502063022 51 296 0.0 0.0 0.00 0.00 0.00 85 1018.9
20260502062922 51 60 0.0 0.0 0.00 0.00 0.00 85 1018.9
20260502062521 52 220 0.0 0.0 0.00 0.00 0.00 86 1018.9
20260502062422 52 281 0.0 0.0 0.00 0.00 0.00 86 1018.9
20260502062021 52 139 0.0 0.0 0.00 0.00 0.00 86 1019.0
20260502061921 52 139 0.0 0.0 0.00 0.00 0.00 86 1019.1
20260502061519 52 269 0.0 0.0 0.00 0.00 0.00 86 1019.0
20260502061419 52 359 0.0 0.0 0.00 0.00 0.00 86 1019.0
20260502061019 52 20 0.0 0.0 0.00 0.00 0.00 85 1019.0
20260502060920 52 20 0.0 0.0 0.00 0.00 0.00 85 1019.1
20260502060521 51 185 0.0 0.0 0.00 0.00 0.00 85 1019.1
20260502060421 52 185 0.0 0.0 0.00 0.00 0.00 85 1019.1
20260502060032 51 149 0.0 0.0 0.00 0.00 0.00 85 1019.1
20260502055915 51 141 0.0 0.0 0.00 0.00 0.00 85 1019.1
20260502055516 51 37 0.0 0.0 0.00 0.00 0.00 85 1019.2
20260502055418 51 36 0.0 0.0 0.00 0.00 0.00 85 1019.2
20260502055017 51 212 0.0 0.0 0.00 0.00 0.00 85 1019.2
20260502054918 51 287 0.0 0.0 0.00 0.00 0.00 85 1019.1
20260502054517 51 305 0.0 0.0 0.00 0.00 0.00 85 1019.2
20260502054419 51 317 0.0 0.0 0.00 0.00 0.00 85 1019.1
20260502054016 52 75 0.0 0.0 0.00 0.00 0.00 86 1019.1
20260502053920 52 242 0.0 0.0 0.00 0.00 0.00 86 1019.1
20260502053516 52 68 0.0 0.0 0.00 0.00 0.00 86 1019.2
20260502053420 52 69 0.0 0.0 0.00 0.00 0.00 86 1019.1
20260502053014 52 65 0.0 0.0 0.00 0.00 0.00 86 1019.1
20260502052934 52 181 0.0 0.0 0.00 0.00 0.00 86 1019.2
20260502052530 52 214 0.0 0.0 0.00 0.00 0.00 86 1019.1
20260502052432 52 214 0.0 0.0 0.00 0.00 0.00 86 1019.1
20260502052031 52 127 0.0 0.0 0.00 0.00 0.00 86 1019.2
20260502051934 52 127 0.0 0.0 0.00 0.00 0.00 86 1019.2
20260502051533 52 77 0.0 0.0 0.00 0.00 0.00 86 1019.2
20260502051433 52 300 0.0 0.0 0.00 0.00 0.00 86 1019.2
20260502051032 52 178 0.0 0.0 0.00 0.00 0.00 85 1019.2
20260502050932 52 195 0.0 0.0 0.00 0.00 0.00 85 1019.2
20260502050525 52 266 0.0 0.0 0.00 0.00 0.00 85 1019.3
20260502050425 52 267 0.0 0.0 0.00 0.00 0.00 85 1019.2
20260502050015 52 231 0.0 0.0 0.00 0.00 0.00 85 1019.1
20260502045916 52 127 0.0 0.0 0.00 0.00 0.00 85 1019.2
20260502045515 52 258 0.0 0.0 0.00 0.00 0.00 86 1019.1
20260502045415 52 290 0.0 0.0 0.00 0.00 0.00 86 1019.2
20260502045015 52 277 0.0 0.0 0.00 0.00 0.00 86 1019.1
20260502044915 52 153 0.0 0.0 0.00 0.00 0.00 86 1019.2
20260502044528 52 220 0.0 0.0 0.00 0.00 0.00 86 1019.1
20260502044434 52 232 0.0 0.0 0.00 0.00 0.00 86 1019.2
20260502044030 52 275 0.0 0.0 0.00 0.00 0.00 86 1019.0
20260502043935 52 253 0.0 0.0 0.00 0.00 0.00 86 1019.0
20260502043529 52 222 0.0 0.0 0.00 0.00 0.00 86 1018.9
20260502043426 52 224 0.0 0.0 0.00 0.00 0.00 86 1018.9
20260502043024 52 155 0.0 0.0 0.00 0.00 0.00 86 1018.9
20260502042924 52 250 0.0 0.0 0.00 0.00 0.00 86 1018.9
20260502042524 52 265 0.0 0.0 0.00 0.00 0.00 86 1018.9
20260502042425 52 147 0.0 0.0 0.00 0.00 0.00 86 1018.9
20260502042027 52 309 0.0 0.0 0.00 0.00 0.00 86 1018.8
20260502041928 52 64 0.0 0.0 0.00 0.00 0.00 86 1018.8
20260502041526 52 282 0.0 0.0 0.00 0.00 0.00 86 1018.8
20260502041427 52 281 0.0 0.0 0.00 0.00 0.00 86 1018.9
20260502041028 52 210 0.0 0.0 0.00 0.00 0.00 86 1018.8
20260502040929 52 210 0.0 0.0 0.00 0.00 0.00 86 1018.8
20260502040529 52 298 0.0 0.0 0.00 0.00 0.00 86 1018.8
20260502040428 52 299 0.0 0.0 0.00 0.00 0.00 86 1018.8
20260502040015 52 108 0.0 0.0 0.00 0.00 0.00 86 1018.8
20260502035917 52 22 0.0 0.0 0.00 0.00 0.00 86 1018.9
20260502035516 52 41 0.0 0.0 0.00 0.00 0.00 86 1018.8
20260502035417 52 72 0.0 0.0 0.00 0.00 0.00 86 1018.8
20260502035017 52 104 0.0 0.0 0.00 0.00 0.00 86 1018.8
20260502034920 52 144 0.0 0.0 0.00 0.00 0.00 86 1018.7
20260502034517 52 139 0.0 0.0 0.00 0.00 0.00 86 1018.8
20260502034423 52 138 0.0 0.0 0.00 0.00 0.00 86 1018.7
20260502034018 52 300 0.0 0.0 0.00 0.00 0.00 86 1018.8
20260502033923 52 309 0.0 0.0 0.00 0.00 0.00 86 1018.8
20260502033519 52 89 0.0 0.0 0.00 0.00 0.00 86 1018.7
20260502033419 52 209 0.0 0.0 0.00 0.00 0.00 86 1018.7
20260502033022 52 85 0.0 0.0 0.00 0.00 0.00 86 1018.8
20260502032922 52 85 0.0 0.0 0.00 0.00 0.00 86 1018.7
20260502032521 52 102 0.0 0.0 0.00 0.00 0.00 86 1018.7
20260502032421 52 102 0.0 0.0 0.00 0.00 0.00 86 1018.7
20260502032020 52 279 0.0 0.0 0.00 0.00 0.00 86 1018.7
20260502031922 52 279 0.0 0.0 0.00 0.00 0.00 86 1018.7
20260502031521 52 311 0.0 0.0 0.00 0.00 0.00 85 1018.7
20260502031422 52 292 0.0 0.0 0.00 0.00 0.00 85 1018.8
20260502031022 52 174 0.0 0.0 0.00 0.00 0.00 86 1018.8
20260502030922 52 174 0.0 0.0 0.00 0.00 0.00 85 1018.7
20260502030533 52 174 0.0 0.0 0.00 0.00 0.00 85 1018.7
20260502030414 52 174 0.0 0.0 0.00 0.00 0.00 85 1018.7
20260502030022 52 226 0.0 0.0 0.00 0.00 0.00 85 1018.7
20260502025922 52 211 0.0 0.0 0.00 0.00 0.00 85 1018.7
20260502025523 52 122 0.0 0.0 0.00 0.00 0.00 85 1018.7
20260502025423 52 118 0.0 0.0 0.00 0.00 0.00 85 1018.7
20260502025022 53 293 0.0 0.0 0.00 0.00 0.00 85 1018.7
20260502024923 53 288 0.0 0.0 0.00 0.00 0.00 85 1018.7
20260502024516 53 228 0.0 0.0 0.00 0.00 0.00 86 1018.7
20260502024421 53 173 0.0 0.0 0.00 0.00 0.00 86 1018.7
20260502024016 53 250 0.0 0.0 0.00 0.00 0.00 85 1018.6
20260502023922 53 306 0.0 0.0 0.00 0.00 0.00 85 1018.6
20260502023520 53 186 0.0 0.0 0.00 0.00 0.00 85 1018.5
20260502023420 53 295 0.0 0.0 0.00 0.00 0.00 86 1018.5
20260502023019 53 295 0.0 0.0 0.00 0.00 0.00 86 1018.6
20260502022919 53 340 0.0 0.0 0.00 0.00 0.00 85 1018.5
20260502022517 53 113 0.0 0.0 0.00 0.00 0.00 85 1018.6
20260502022416 53 75 0.0 0.0 0.00 0.00 0.00 85 1018.5
20260502022016 53 284 0.0 0.0 0.00 0.00 0.00 85 1018.4
20260502021936 53 284 0.0 0.0 0.00 0.00 0.00 85 1018.5
20260502021532 53 315 0.0 0.0 0.00 0.00 0.00 85 1018.6
20260502021431 53 290 0.0 0.0 0.00 0.00 0.00 85 1018.5
20260502021028 53 340 0.0 0.0 0.00 0.00 0.00 85 1018.5
20260502020929 53 205 0.0 0.0 0.00 0.00 0.00 85 1018.5
20260502020528 53 43 0.0 0.0 0.00 0.00 0.00 85 1018.5
20260502020426 53 62 0.0 0.0 0.00 0.00 0.00 85 1018.5
20260502020014 53 93 0.0 0.0 0.00 0.00 0.00 85 1018.6
20260502015933 53 137 0.0 0.0 0.00 0.00 0.00 85 1018.6
20260502015531 53 97 0.0 0.0 0.00 0.00 0.00 85 1018.6
20260502015433 53 323 0.0 0.0 0.00 0.00 0.00 86 1018.6
20260502015028 53 305 0.0 0.0 0.00 0.00 0.00 86 1018.7
20260502014934 53 64 0.0 0.0 0.00 0.00 0.00 86 1018.7
20260502014527 53 73 0.0 0.0 0.00 0.00 0.00 86 1018.7
20260502014431 53 263 0.0 0.0 0.00 0.00 0.00 86 1018.7
20260502014028 53 120 0.0 0.0 0.00 0.00 0.00 86 1018.6
20260502013912 53 120 0.0 0.0 0.00 0.00 0.00 86 1018.6
20260502013533 53 37 0.0 0.0 0.00 0.00 0.00 86 1018.6
20260502013431 53 39 0.0 0.0 0.00 0.00 0.00 86 1018.7
20260502013032 53 281 0.0 0.0 0.00 0.00 0.00 86 1018.6
20260502012932 53 312 0.0 0.0 0.00 0.00 0.00 86 1018.6
20260502012529 54 340 0.0 0.0 0.00 0.00 0.00 86 1018.6
20260502012429 54 281 0.0 0.0 0.00 0.00 0.00 86 1018.6
20260502012028 54 108 0.0 0.0 0.00 0.00 0.00 86 1018.5
20260502011927 54 86 0.0 0.0 0.00 0.00 0.00 86 1018.6
20260502011529 54 315 0.0 0.0 0.00 0.00 0.00 86 1018.6
20260502011432 54 343 0.0 0.0 0.00 0.00 0.00 86 1018.5
20260502011032 54 71 0.0 0.0 0.00 0.00 0.00 86 1018.5
20260502010931 54 228 0.0 0.0 0.00 0.00 0.00 86 1018.5
20260502010532 54 237 0.0 0.0 0.00 0.00 0.00 86 1018.6
20260502010429 54 273 0.0 0.0 0.00 0.00 0.00 86 1018.6
20260502010030 54 257 0.0 0.0 0.00 0.00 0.00 86 1018.6
20260502005930 54 245 0.0 0.0 0.00 0.00 0.00 86 1018.6
20260502005524 54 56 0.0 0.0 0.00 0.00 0.00 86 1018.6
20260502005429 54 309 0.0 0.0 0.00 0.00 0.00 86 1018.7
20260502005023 54 311 0.0 0.0 0.00 0.00 0.00 86 1018.6
20260502004927 54 311 0.0 0.0 0.00 0.00 0.00 86 1018.6
20260502004524 55 330 0.0 0.0 0.00 0.00 0.00 85 1018.6
20260502004420 55 75 0.0 0.0 0.00 0.00 0.00 85 1018.6
20260502004019 55 276 0.0 0.0 0.00 0.00 0.00 85 1018.6
20260502003939 55 146 0.0 0.0 0.00 0.00 0.00 85 1018.6
20260502003014 55 248 0.0 0.0 0.00 0.00 0.00 85 1018.5
20260502002934 55 208 0.0 0.0 0.00 0.00 0.00 85 1018.5
20260502002528 55 302 0.0 0.0 0.00 0.00 0.00 85 1018.5
20260502002432 55 233 0.0 0.0 0.00 0.00 0.00 85 1018.5
20260502002025 55 150 0.0 0.0 0.00 0.00 0.00 86 1018.6
20260502001912 55 150 0.0 0.0 0.00 0.00 0.00 85 1018.4
20260502001531 55 129 0.0 0.0 0.00 0.00 0.00 85 1018.5
20260502001431 55 342 0.0 0.0 0.00 0.00 0.00 85 1018.5
20260502001029 55 137 0.0 0.0 0.00 0.00 0.00 85 1018.4
20260502000929 55 137 0.0 0.0 0.00 0.00 0.00 85 1018.5
20260502000530 55 291 0.0 0.0 0.00 0.00 0.00 85 1018.5
20260502000429 55 255 0.0 0.0 0.00 0.00 0.00 85 1018.5
20260502000020 55 315 0.0 0.0 0.00 0.00 0.00 85 1018.6
20260501235921 55 315 0.0 0.0 0.00 0.00 0.00 85 1018.5
20260501235521 55 129 0.0 0.0 0.00 0.00 0.00 85 1018.6
20260501235419 55 163 0.0 0.0 0.00 0.00 0.00 85 1018.5
20260501235015 55 308 0.0 0.0 0.00 0.00 0.00 85 1018.5
20260501234934 55 306 0.0 0.0 0.00 0.00 0.00 85 1018.6
20260501234532 55 290 0.0 0.0 0.00 0.00 0.00 85 1018.6
20260501234433 55 282 0.0 0.0 0.00 0.00 0.00 85 1018.6
20260501234032 55 238 0.0 0.0 0.00 0.00 0.00 84 1018.6
20260501233932 55 176 0.0 0.0 0.00 0.00 0.00 84 1018.6
20260501233532 55 283 0.0 0.0 0.00 0.00 0.00 84 1018.7
20260501233433 55 106 0.0 0.0 0.00 0.00 0.00 83 1018.7
20260501233031 56 249 0.0 0.0 0.00 0.00 0.00 83 1018.6
20260501232930 56 165 0.0 0.0 0.00 0.00 0.00 83 1018.7
20260501232523 56 238 0.0 0.0 0.00 0.00 0.00 84 1018.7
20260501232428 56 238 0.0 0.0 0.00 0.00 0.00 83 1018.7
20260501232019 56 335 0.0 0.0 0.00 0.00 0.00 83 1018.8
20260501231923 56 7 0.0 0.0 0.00 0.00 0.00 83 1018.7
20260501231516 56 293 0.0 0.0 0.00 0.00 0.00 83 1018.8
20260501231437 56 39 0.0 0.0 0.00 0.00 0.00 83 1018.7
20260501231032 56 278 0.0 0.0 0.00 0.00 0.00 83 1018.9
20260501230932 56 17 0.0 0.0 0.00 0.00 0.00 83 1018.8
20260501230530 56 275 0.0 0.0 0.00 0.00 0.00 83 1018.9
20260501230428 56 275 0.0 0.0 0.00 0.00 0.00 83 1018.9
20260501230017 56 283 0.0 0.0 0.00 0.00 0.00 83 1018.9
20260501225917 56 279 0.0 0.0 0.00 0.00 0.00 83 1018.9
20260501225517 56 268 0.0 0.0 0.00 0.00 0.00 83 1019.0
20260501225435 57 279 0.0 0.0 0.00 0.00 0.00 83 1019.0
20260501225030 57 234 0.0 0.0 0.00 0.00 0.00 82 1019.1
20260501224930 57 329 0.0 0.0 0.00 0.00 0.00 82 1019.1
20260501224529 57 286 0.0 0.0 0.00 0.00 0.00 83 1019.1
20260501224429 57 352 0.0 0.0 0.00 0.00 0.00 83 1019.1
20260501224027 57 44 0.0 0.0 0.00 0.00 0.00 83 1019.2
20260501223928 57 252 0.0 0.0 0.00 0.00 0.00 83 1019.2
20260501223531 57 230 0.0 0.0 0.00 0.00 0.00 83 1019.3
20260501223431 56 230 0.0 0.0 0.00 0.00 0.00 83 1019.3
20260501223026 57 16 0.0 0.0 0.00 0.00 0.00 83 1019.2
20260501222930 57 300 0.0 0.0 0.00 0.00 0.00 83 1019.3
20260501222526 57 132 0.0 0.0 0.00 0.00 0.00 83 1019.3
20260501222411 57 200 0.0 0.0 0.00 0.00 0.00 83 1019.3
20260501222032 57 134 0.0 0.0 0.00 0.00 0.00 82 1019.4
20260501221914 57 78 0.0 0.0 0.00 0.00 0.00 82 1019.3
20260501221533 57 245 0.0 0.0 0.00 0.00 0.00 83 1019.3
20260501221432 57 214 0.0 0.0 0.00 0.00 0.00 83 1019.3